Regional Weather Roundup
Issued by NWS Cleveland, OH

Home | Current Version | Previous Version | Graphics & Text | Print | Product List | Glossary On
Versions: 1 2 3 4 5 6 7 8 9 10 11 12 13 14 15 16 17 18 19 20 21 22 23 24 25 26 27 28 29 30 31 32 33 34 35 36 37 38 39 40 41 42 43 44 45 46 47 48 49 50
000
ASUS41 KCLE 272200
RWRCLE
OHIO REGIONAL WEATHER ROUNDUP
NATIONAL WEATHER SERVICE WILMINGTON, OH
600 PM EDT TUE SEP 27 2016

NOTE: "FAIR" INDICATES FEW OR NO CLOUDS BELOW 12,000 FEET WITH NO
SIGNIFICANT WEATHER AND/OR OBSTRUCTIONS TO VISIBILITY.

OHZ001>008-015>018-024>027-034-035-043-044-272300-
   NORTHWEST OHIO

CITY           SKY/WX    TMP DP  RH WIND       PRES   REMARKS
DEFIANCE       FAIR      72  32  23 W8G17     29.76S
FINDLAY        FAIR      73  30  20 W18G28    29.76S
TOLEDO EXPRESS FAIR      69  35  28 W12       29.75S
TOLEDO EXEC    FAIR      70  37  29 W14       29.76S
LIMA           FAIR      72  36  26 W15G29    29.78S
$$

OHZ009>014-019>023-028>033-038-089-272300-
   NORTHEAST OHIO

CITY           SKY/WX    TMP DP  RH WIND       PRES   REMARKS
CLE-HOPKINS    FAIR      73  37  27 SW17      29.79R
CLE-LAKEFRONT  FAIR      73  40  30 SW18      29.76S
CUY CO. ARPT   MOSUNNY   73  43  33 W17G25    29.79R
LORAIN-ELYRIA  FAIR      72  35  25 W18G24    29.78R
ASHTABULA      PTSUNNY   68  42  38 S8        29.80S
AKRON-CANTON   FAIR      70  40  33 SW20      29.82S
WOOSTER        NOT AVBL
MANSFIELD      FAIR      71  42  35 SW12      29.80S
YOUNGSTOWN     FAIR      69  40  34 SW16G22   29.83S
$$

OHZ042-051>053-060>062-070>072-077>081-272300-
  SOUTHWEST OHIO

CITY           SKY/WX    TMP DP  RH WIND       PRES   REMARKS
CINC-COVINGTON FAIR      73  45  36 SW10G22   29.86S
CINC-LUNKEN    FAIR      73  45  36 SW14      29.86S
HAMILTON       FAIR      74  45  35 SW10G20   29.85S
DAYTON         NOT AVBL
WRIGHT-PAT AFB FAIR      73  44  35 SW17      29.82S
DAYTON GENERAL FAIR      72  43  35 SW16G22   29.83F
WILMINGTON     FAIR      71  43  36 SW18      29.85S
$$

OHZ036-037-039>041-045>050-054>059-063>069-073>076-082>088-272300-
  CENTRAL AND SOUTHEAST OHIO

CITY           SKY/WX    TMP DP  RH WIND       PRES   REMARKS
COLUMBUS       PTSUNNY   72  42  34 SW14      29.83S
OSU AIRPORT    FAIR      71  44  37 SW14G22   29.82S
BOLTON FIELD   SUNNY     72  45  37 SW15G22   29.84S
RICKENBACK AFB NOT AVBL
NEWARK         FAIR      72  38  29 SW12G22   29.83F
MARION         FAIR      74  31  20 W13G31    29.80R
LANCASTER      FAIR      72  39  30 SW14G20   29.85S
ZANESVILLE     FAIR      72  37  28 SW10G20   29.85S
NEW PHILLY     FAIR      72  38  29 S7        29.84S
$$



USA.gov is the U.S. government's official web portal to all federal, state and local government web resources and services.